| time (UTC) | temp F | wind direction | speed knots | gust knots | rain 1hr in | rain 24hr in | rain mn in | humidity % | barometer mb |
| 20260906221003 | 100 | 155 | 5.2 | 8.7 | 0.00 | 0.00 | 0.00 | 35 | 1010.5 |
| 20260906220502 | 0 | 103 | 2.6 | 8.7 | 0.00 | 0.00 | 0.00 | 1010.5 | |
| 20260906220003 | 0 | 127 | 5.2 | 10.4 | 0.00 | 0.00 | 0.00 | 1010.5 | |
| 20260906215502 | 0 | 118 | 6.1 | 10.4 | 0.00 | 0.00 | 0.00 | 1010.7 | |
| 20260906215037 | 98 | 87 | 7.0 | 10.4 | 0.00 | 0.00 | 0.00 | 35 | 1010.6 |
| 20260906214257 | 99 | 125 | 7.0 | 9.6 | 0.00 | 0.00 | 0.00 | 34 | 1010.8 |
| 20260906213502 | 99 | 164 | 4.3 | 9.6 | 0.00 | 0.00 | 0.00 | 35 | 1010.8 |
| 20260906213004 | 0 | 54 | 5.2 | 13.0 | 0.00 | 0.00 | 0.00 | 1011.0 | |
| 20260906212502 | 0 | 69 | 7.0 | 13.0 | 0.00 | 0.00 | 0.00 | 1010.8 | |
| 20260906212005 | 0 | 87 | 4.3 | 5.2 | 0.00 | 0.00 | 0.00 | 1011.0 | |
| 20260906211504 | 0 | 87 | 4.3 | 7.8 | 0.00 | 0.00 | 0.00 | 1011.0 | |
| 20260906211249 | 0 | 24 | 3.5 | 8.7 | 0.00 | 0.00 | 0.00 | 1011.0 | |
| 20260906210504 | 100 | 118 | 2.6 | 10.4 | 0.00 | 0.00 | 0.00 | 34 | 1011.3 |
| 20260906210004 | 100 | 85 | 6.1 | 12.2 | 0.00 | 0.00 | 0.00 | 34 | 1011.4 |
| 20260906205503 | 100 | 100 | 7.8 | 12.2 | 0.00 | 0.00 | 0.00 | 35 | 1011.4 |
| 20260906205254 | 100 | 158 | 6.1 | 12.2 | 0.00 | 0.00 | 0.00 | 35 | 1011.4 |
| 20260906204503 | 100 | 83 | 7.0 | 12.2 | 0.00 | 0.00 | 0.00 | 34 | 1011.6 |
| 20260906204002 | 99 | 197 | 0.9 | 7.8 | 0.00 | 0.00 | 0.00 | 35 | 1011.6 |
| 20260906203502 | 99 | 42 | 3.5 | 10.4 | 0.00 | 0.00 | 0.00 | 35 | 1011.6 |
| 20260906203003 | 99 | 103 | 4.3 | 12.2 | 0.00 | 0.00 | 0.00 | 35 | 1011.7 |
| 20260906202503 | 100 | 169 | 5.2 | 12.2 | 0.00 | 0.00 | 0.00 | 35 | 1011.7 |
| 20260906202002 | 100 | 47 | 5.2 | 10.4 | 0.00 | 0.00 | 0.00 | 37 | 1011.7 |
| 20260906201502 | 98 | 235 | 3.5 | 7.8 | 0.00 | 0.00 | 0.00 | 37 | 1011.8 |
| 20260906201254 | 98 | 39 | 1.7 | 11.3 | 0.00 | 0.00 | 0.00 | 37 | 1011.8 |
| 20260906200504 | 97 | 114 | 6.1 | 11.3 | 0.00 | 0.00 | 0.00 | 37 | 1012.0 |
| 20260906200004 | 98 | 72 | 3.5 | 10.4 | 0.00 | 0.00 | 0.00 | 37 | 1012.2 |
| 20260906195501 | 98 | 99 | 5.2 | 7.8 | 0.00 | 0.00 | 0.00 | 37 | 1012.1 |
| 20260906195003 | 98 | 54 | 7.0 | 12.2 | 0.00 | 0.00 | 0.00 | 37 | 1012.1 |
| 20260906194755 | 98 | 54 | 7.0 | 12.2 | 0.00 | 0.00 | 0.00 | 37 | 1012.2 |
| 20260906194004 | 98 | 82 | 7.0 | 11.3 | 0.00 | 0.00 | 0.00 | 37 | 1012.2 |
| 20260906193503 | 98 | 66 | 6.1 | 11.3 | 0.00 | 0.00 | 0.00 | 37 | 1012.3 |
| 20260906193001 | 98 | 116 | 5.2 | 11.3 | 0.00 | 0.00 | 0.00 | 37 | 1012.3 |
| 20260906192504 | 98 | 169 | 4.3 | 13.0 | 0.00 | 0.00 | 0.00 | 37 | 1012.4 |
| 20260906192006 | 98 | 113 | 7.0 | 13.0 | 0.00 | 0.00 | 0.00 | 37 | 1012.6 |
| 20260906191503 | 98 | 68 | 6.1 | 12.2 | 0.00 | 0.00 | 0.00 | 37 | 1012.5 |
| 20260906191042 | 98 | 109 | 8.7 | 12.2 | 0.00 | 0.00 | 0.00 | 37 | 1012.5 |
| 20260906190003 | 97 | 185 | 3.5 | 9.6 | 0.00 | 0.00 | 0.00 | 38 | 1012.7 |
| 20260906185756 | 98 | 82 | 5.2 | 9.6 | 0.00 | 0.00 | 0.00 | 37 | 1012.7 |
| 20260906185002 | 98 | 42 | 3.5 | 10.4 | 0.00 | 0.00 | 0.00 | 38 | 1012.8 |
| 20260906184504 | 98 | 100 | 7.0 | 10.4 | 0.00 | 0.00 | 0.00 | 38 | 1012.9 |
| 20260906184002 | 97 | 316 | 1.7 | 6.1 | 0.00 | 0.00 | 0.00 | 38 | 1013.1 |
| 20260906183502 | 96 | 0 | 0.0 | 11.3 | 0.00 | 0.00 | 0.00 | 38 | 1013.2 |
| 20260906183004 | 96 | 55 | 6.1 | 11.3 | 0.00 | 0.00 | 0.00 | 39 | 1013.3 |
| 20260906182502 | 96 | 130 | 3.5 | 7.8 | 0.00 | 0.00 | 0.00 | 39 | 1013.4 |
| 20260906182004 | 95 | 30 | 3.5 | 7.8 | 0.00 | 0.00 | 0.00 | 40 | 1013.3 |
| 20260906181502 | 95 | 28 | 3.5 | 12.2 | 0.00 | 0.00 | 0.00 | 39 | 1013.3 |
| 20260906181004 | 96 | 32 | 3.5 | 12.2 | 0.00 | 0.00 | 0.00 | 39 | 1013.6 |
| 20260906180502 | 96 | 65 | 7.0 | 11.3 | 0.00 | 0.00 | 0.00 | 39 | 1013.6 |
| 20260906180301 | 96 | 188 | 2.6 | 8.7 | 0.00 | 0.00 | 0.00 | 41 | 1013.7 |
| 20260906175501 | 0 | 121 | 5.2 | 8.7 | 0.00 | 0.00 | 0.00 | 1013.8 | |
| 20260906175003 | 96 | 37 | 1.7 | 9.6 | 0.00 | 0.00 | 0.00 | 41 | 1014.0 |
| 20260906174757 | 96 | 28 | 7.0 | 11.3 | 0.00 | 0.00 | 0.00 | 41 | 1014.0 |
| 20260906174005 | 96 | 85 | 5.2 | 11.3 | 0.00 | 0.00 | 0.00 | 41 | 1014.1 |
| 20260906173503 | 96 | 54 | 7.8 | 11.3 | 0.00 | 0.00 | 0.00 | 41 | 1014.1 |
| 20260906173256 | 95 | 116 | 6.1 | 11.3 | 0.00 | 0.00 | 0.00 | 41 | 1014.2 |
| 20260906172503 | 94 | 51 | 5.2 | 9.6 | 0.00 | 0.00 | 0.00 | 43 | 1014.3 |
| 20260906172002 | 93 | 62 | 4.3 | 7.8 | 0.00 | 0.00 | 0.00 | 44 | 1014.4 |
| 20260906171503 | 93 | 27 | 3.5 | 8.7 | 0.00 | 0.00 | 0.00 | 44 | 1014.4 |
| 20260906171257 | 93 | 30 | 5.2 | 10.4 | 0.00 | 0.00 | 0.00 | 44 | 1014.4 |
| 20260906170756 | 93 | 52 | 5.2 | 10.4 | 0.00 | 0.00 | 0.00 | 44 | 1014.5 |
| 20260906170002 | 93 | 18 | 4.3 | 10.4 | 0.00 | 0.00 | 0.00 | 45 | 1014.6 |
| 20260906165759 | 93 | 66 | 5.2 | 10.4 | 0.00 | 0.00 | 0.00 | 44 | 1014.6 |
| 20260906165004 | 93 | 42 | 3.5 | 7.8 | 0.00 | 0.00 | 0.00 | 44 | 1014.7 |
| 20260906164502 | 93 | 72 | 3.5 | 7.8 | 0.00 | 0.00 | 0.00 | 45 | 1014.6 |
| 20260906164004 | 94 | 8 | 3.5 | 6.1 | 0.00 | 0.00 | 0.00 | 44 | 1014.7 |
| 20260906163504 | 94 | 338 | 1.7 | 6.1 | 0.00 | 0.00 | 0.00 | 44 | 1014.6 |
| 20260906163002 | 94 | 320 | 3.5 | 6.1 | 0.00 | 0.00 | 0.00 | 45 | 1014.6 |
| 20260906162503 | 94 | 348 | 3.5 | 6.1 | 0.00 | 0.00 | 0.00 | 45 | 1014.7 |
| 20260906162002 | 93 | 227 | 0.9 | 5.2 | 0.00 | 0.00 | 0.00 | 45 | 1014.7 |
| 20260906161502 | 93 | 62 | 2.6 | 7.8 | 0.00 | 0.00 | 0.00 | 46 | 1014.7 |
| 20260906161002 | 93 | 1 | 5.2 | 7.8 | 0.00 | 0.00 | 0.00 | 46 | 1014.7 |
| 20260906160503 | 93 | 34 | 3.5 | 7.8 | 0.00 | 0.00 | 0.00 | 46 | 1014.6 |
| 20260906160005 | 94 | 31 | 4.3 | 7.8 | 0.00 | 0.00 | 0.00 | 46 | 1014.7 |
| 20260906155504 | 94 | 316 | 0.9 | 6.1 | 0.00 | 0.00 | 0.00 | 47 | 1014.7 |
| 20260906155003 | 94 | 269 | 4.3 | 6.1 | 0.00 | 0.00 | 0.00 | 47 | 1014.6 |
| 20260906154758 | 93 | 295 | 3.5 | 4.3 | 0.00 | 0.00 | 0.00 | 48 | 1014.6 |
| 20260906154040 | 92 | 288 | 0.9 | 3.5 | 0.00 | 0.00 | 0.00 | 48 | 1014.5 |
| 20260906153005 | 92 | 3 | 1.7 | 4.3 | 0.00 | 0.00 | 0.00 | 52 | 1014.5 |
| 20260906152503 | 0 | 337 | 3.5 | 4.3 | 0.00 | 0.00 | 0.00 | 1014.5 | |
| 20260906152002 | 91 | 323 | 1.7 | 2.6 | 0.00 | 0.00 | 0.00 | 54 | 1014.5 |
| 20260906151502 | 91 | 23 | 2.6 | 1.7 | 0.00 | 0.00 | 0.00 | 54 | 1014.5 |
| 20260906151004 | 89 | 23 | 2.6 | 4.3 | 0.00 | 0.00 | 0.00 | 54 | 1014.5 |
| 20260906150504 | 89 | 278 | 1.7 | 4.3 | 0.00 | 0.00 | 0.00 | 54 | 1014.4 |
| 20260906150005 | 89 | 289 | 1.7 | 4.3 | 0.00 | 0.00 | 0.00 | 55 | 1014.4 |
| 20260906145503 | 89 | 307 | 1.7 | 4.3 | 0.00 | 0.00 | 0.00 | 56 | 1014.4 |
| 20260906145254 | 88 | 281 | 0.9 | 4.3 | 0.00 | 0.00 | 0.00 | 56 | 1014.4 |
| 20260906144504 | 88 | 224 | 1.7 | 3.5 | 0.00 | 0.00 | 0.00 | 62 | 1014.5 |
| 20260906144003 | 0 | 265 | 1.7 | 4.3 | 0.00 | 0.00 | 0.00 | 1014.5 | |
| 20260906143503 | 0 | 269 | 1.7 | 4.3 | 0.00 | 0.00 | 0.00 | 1014.6 | |
| 20260906143005 | 0 | 302 | 0.0 | 2.6 | 0.00 | 0.00 | 0.00 | 1014.6 | |
| 20260906142504 | 0 | 317 | 0.9 | 4.3 | 0.00 | 0.00 | 0.00 | 1014.6 | |
| 20260906142003 | 84 | 259 | 1.7 | 4.3 | 0.00 | 0.00 | 0.00 | 62 | 1014.6 |
| 20260906141503 | 84 | 310 | 1.7 | 3.5 | 0.00 | 0.00 | 0.00 | 62 | 1014.6 |
| 20260906141004 | 84 | 261 | 1.7 | 3.5 | 0.00 | 0.00 | 0.00 | 62 | 1014.5 |
| 20260906140503 | 83 | 162 | 0.0 | 1.7 | 0.00 | 0.00 | 0.00 | 63 | 1014.5 |
| 20260906140002 | 83 | 162 | 0.0 | 1.7 | 0.00 | 0.00 | 0.00 | 64 | 1014.5 |
| 20260906135503 | 82 | 162 | 0.9 | 1.7 | 0.00 | 0.00 | 0.00 | 64 | 1014.5 |
| 20260906135004 | 81 | 162 | 0.0 | 0.0 | 0.00 | 0.00 | 0.00 | 66 | 1014.4 |
| 20260906134502 | 80 | 162 | 0.0 | 0.0 | 0.00 | 0.00 | 0.00 | 67 | 1014.4 |
| 20260906134002 | 79 | 162 | 0.0 | 0.0 | 0.00 | 0.00 | 0.00 | 68 | 1014.3 |
| 20260906133501 | 79 | 162 | 0.0 | 0.0 | 0.00 | 0.00 | 0.00 | 69 | 1014.3 |
| 20260906133004 | 78 | 162 | 0.0 | 0.0 | 0.00 | 0.00 | 0.00 | 76 | 1014.3 |
| 20260906132504 | 76 | 162 | 0.0 | 0.0 | 0.00 | 0.00 | 0.00 | 76 | 1014.3 |
| 20260906132004 | 76 | 162 | 0.0 | 0.0 | 0.00 | 0.00 | 0.00 | 76 | 1014.2 |
| 20260906131504 | 0 | 162 | 0.0 | 0.0 | 0.00 | 0.00 | 0.00 | 1014.2 | |
| 20260906131003 | 74 | 162 | 0.0 | 0.0 | 0.00 | 0.00 | 0.00 | 76 | 1014.2 |
| 20260906130503 | 74 | 162 | 0.0 | 0.0 | 0.00 | 0.00 | 0.00 | 76 | 1014.0 |
| 20260906130003 | 74 | 162 | 0.0 | 0.0 | 0.00 | 0.00 | 0.00 | 76 | 1014.0 |
| 20260906125505 | 73 | 162 | 0.0 | 0.0 | 0.00 | 0.00 | 0.00 | 76 | 1014.0 |
| 20260906125004 | 73 | 162 | 0.0 | 0.0 | 0.00 | 0.00 | 0.00 | 75 | 1013.9 |
| 20260906124503 | 73 | 162 | 0.0 | 0.0 | 0.00 | 0.00 | 0.00 | 75 | 1013.9 |
| 20260906124003 | 73 | 162 | 0.0 | 0.0 | 0.00 | 0.00 | 0.00 | 75 | 1013.8 |
| 20260906123757 | 73 | 162 | 0.0 | 0.0 | 0.00 | 0.00 | 0.00 | 74 | 1013.9 |
| 20260906123004 | 73 | 162 | 0.0 | 0.0 | 0.00 | 0.00 | 0.00 | 74 | 1013.7 |
| 20260906122504 | 73 | 162 | 0.0 | 0.9 | 0.00 | 0.00 | 0.00 | 73 | 1013.6 |
| 20260906122002 | 73 | 162 | 0.0 | 1.7 | 0.00 | 0.00 | 0.00 | 73 | 1013.7 |
| 20260906121504 | 73 | 162 | 0.9 | 1.7 | 0.00 | 0.00 | 0.00 | 73 | 1013.5 |
| 20260906121003 | 74 | 162 | 0.9 | 1.7 | 0.00 | 0.00 | 0.00 | 73 | 1013.4 |
| 20260906120759 | 74 | 162 | 0.0 | 0.0 | 0.00 | 0.00 | 0.00 | 73 | 1013.3 |
| 20260906120002 | 74 | 162 | 0.0 | 0.0 | 0.00 | 0.00 | 0.00 | 73 | 1013.3 |
| 20260906115541 | 74 | 162 | 0.0 | 0.9 | 0.00 | 0.00 | 0.00 | 73 | 1013.3 |
| 20260906114504 | 74 | 162 | 0.9 | 2.6 | 0.00 | 0.00 | 0.00 | 72 | 1013.2 |
| 20260906114003 | 74 | 162 | 0.9 | 2.6 | 0.00 | 0.00 | 0.00 | 72 | 1013.2 |
| 20260906113504 | 74 | 162 | 0.9 | 2.6 | 0.00 | 0.00 | 0.00 | 72 | 1013.1 |
| 20260906113003 | 74 | 162 | 0.9 | 1.7 | 0.00 | 0.00 | 0.00 | 72 | 1013.2 |
| 20260906112504 | 74 | 162 | 0.9 | 3.5 | 0.00 | 0.00 | 0.00 | 72 | 1013.2 |
| 20260906112002 | 74 | 162 | 0.9 | 3.5 | 0.00 | 0.00 | 0.00 | 72 | 1012.9 |
| 20260906111502 | 74 | 162 | 0.9 | 3.5 | 0.00 | 0.00 | 0.00 | 72 | 1013.1 |
| 20260906111004 | 74 | 162 | 1.7 | 2.6 | 0.00 | 0.00 | 0.00 | 72 | 1012.9 |
| 20260906110506 | 75 | 162 | 1.7 | 2.6 | 0.00 | 0.00 | 0.00 | 71 | 1012.8 |
| 20260906110005 | 75 | 162 | 0.9 | 1.7 | 0.00 | 0.00 | 0.00 | 70 | 1012.8 |
| 20260906105505 | 75 | 162 | 0.9 | 1.7 | 0.00 | 0.00 | 0.00 | 71 | 1012.7 |
| 20260906105002 | 75 | 162 | 0.0 | 2.6 | 0.00 | 0.00 | 0.00 | 70 | 1012.7 |
| 20260906104755 | 75 | 162 | 0.9 | 2.6 | 0.00 | 0.00 | 0.00 | 70 | 1012.7 |
| 20260906104253 | 76 | 162 | 1.7 | 2.6 | 0.00 | 0.00 | 0.00 | 70 | 1012.7 |
| 20260906103503 | 76 | 162 | 0.9 | 1.7 | 0.00 | 0.00 | 0.00 | 69 | 1012.7 |
| 20260906103003 | 76 | 162 | 0.9 | 1.7 | 0.00 | 0.00 | 0.00 | 69 | 1012.7 |
| 20260906102504 | 76 | 162 | 0.9 | 2.6 | 0.00 | 0.00 | 0.00 | 69 | 1012.6 |
| 20260906102003 | 76 | 162 | 1.7 | 2.6 | 0.00 | 0.00 | 0.00 | 68 | 1012.7 |
| 20260906101752 | 77 | 162 | 0.9 | 1.7 | 0.00 | 0.00 | 0.00 | 68 | 1012.6 |
| 20260906101001 | 77 | 162 | 0.0 | 1.7 | 0.00 | 0.00 | 0.00 | 68 | 1012.7 |
| 20260906100503 | 77 | 162 | 0.9 | 1.7 | 0.00 | 0.00 | 0.00 | 67 | 1012.5 |
| 20260906100002 | 77 | 162 | 0.0 | 1.7 | 0.00 | 0.00 | 0.00 | 67 | 1012.5 |
| 20260906095502 | 77 | 162 | 0.9 | 1.7 | 0.00 | 0.00 | 0.00 | 67 | 1012.5 |
| 20260906095004 | 78 | 162 | 0.9 | 1.7 | 0.00 | 0.00 | 0.00 | 66 | 1012.5 |
| 20260906094504 | 78 | 162 | 0.9 | 1.7 | 0.00 | 0.00 | 0.00 | 67 | 1012.6 |
| 20260906094003 | 78 | 162 | 0.9 | 1.7 | 0.00 | 0.00 | 0.00 | 66 | 1012.6 |
| 20260906093502 | 78 | 162 | 0.9 | 2.6 | 0.00 | 0.00 | 0.00 | 66 | 1012.5 |
| 20260906093257 | 78 | 162 | 1.7 | 2.6 | 0.00 | 0.00 | 0.00 | 66 | 1012.4 |
| 20260906092503 | 78 | 162 | 0.9 | 3.5 | 0.00 | 0.00 | 0.00 | 66 | 1012.5 |
| 20260906092004 | 78 | 162 | 1.7 | 3.5 | 0.00 | 0.00 | 0.00 | 65 | 1012.5 |
| 20260906091504 | 79 | 133 | 0.9 | 3.5 | 0.00 | 0.00 | 0.00 | 65 | 1012.4 |
| 20260906091004 | 79 | 161 | 0.9 | 1.7 | 0.00 | 0.00 | 0.00 | 65 | 1012.4 |
| 20260906090502 | 79 | 168 | 0.0 | 3.5 | 0.00 | 0.00 | 0.00 | 65 | 1012.4 |
| 20260906090250 | 79 | 168 | 1.7 | 4.3 | 0.00 | 0.00 | 0.00 | 65 | 1012.4 |
| 20260906085504 | 79 | 137 | 2.6 | 4.3 | 0.00 | 0.00 | 0.00 | 64 | 1012.3 |
| 20260906085003 | 79 | 145 | 2.6 | 4.3 | 0.00 | 0.00 | 0.00 | 64 | 1012.2 |
| 20260906084503 | 79 | 147 | 2.6 | 6.1 | 0.00 | 0.00 | 0.00 | 64 | 1012.3 |
| 20260906084005 | 79 | 152 | 3.5 | 6.1 | 0.00 | 0.00 | 0.00 | 64 | 1012.4 |
| 20260906083504 | 80 | 135 | 3.5 | 4.3 | 0.00 | 0.00 | 0.00 | 64 | 1012.5 |
| 20260906083003 | 80 | 109 | 2.6 | 3.5 | 0.00 | 0.00 | 0.00 | 63 | 1012.4 |
| 20260906082503 | 80 | 145 | 2.6 | 4.3 | 0.00 | 0.00 | 0.00 | 63 | 1012.3 |
| 20260906082002 | 80 | 157 | 2.6 | 4.3 | 0.00 | 0.00 | 0.00 | 63 | 1012.2 |
| 20260906081754 | 80 | 168 | 2.6 | 5.2 | 0.00 | 0.00 | 0.00 | 63 | 1012.2 |
| 20260906081003 | 80 | 152 | 3.5 | 7.8 | 0.00 | 0.00 | 0.00 | 63 | 1012.2 |
| 20260906080505 | 80 | 142 | 2.6 | 7.8 | 0.00 | 0.00 | 0.00 | 63 | 1012.2 |
| 20260906080256 | 80 | 125 | 4.3 | 10.4 | 0.00 | 0.00 | 0.00 | 62 | 1012.2 |
| 20260906075502 | 80 | 190 | 6.1 | 10.4 | 0.00 | 0.00 | 0.00 | 62 | 1012.3 |
| 20260906075257 | 80 | 148 | 3.5 | 5.2 | 0.00 | 0.00 | 0.00 | 61 | 1012.3 |
| 20260906074503 | 80 | 128 | 1.7 | 6.1 | 0.00 | 0.00 | 0.00 | 61 | 1012.4 |
| 20260906074039 | 80 | 155 | 3.5 | 6.1 | 0.00 | 0.00 | 0.00 | 61 | 1012.3 |
| 20260906073001 | 81 | 144 | 4.3 | 6.1 | 0.00 | 0.00 | 0.00 | 60 | 1012.6 |
| 20260906072502 | 81 | 151 | 4.3 | 7.8 | 0.00 | 0.00 | 0.00 | 60 | 1012.6 |
| 20260906072001 | 81 | 134 | 5.2 | 7.8 | 0.00 | 0.00 | 0.00 | 59 | 1012.6 |
| 20260906071502 | 81 | 158 | 4.3 | 8.7 | 0.00 | 0.00 | 0.00 | 59 | 1012.7 |
| 20260906071003 | 81 | 121 | 4.3 | 8.7 | 0.00 | 0.00 | 0.00 | 59 | 1012.7 |
| 20260906070757 | 81 | 130 | 3.5 | 6.1 | 0.00 | 0.00 | 0.00 | 58 | 1012.7 |
| 20260906070004 | 81 | 131 | 4.3 | 8.7 | 0.00 | 0.00 | 0.00 | 58 | 1012.6 |
| 20260906065748 | 81 | 142 | 4.3 | 11.3 | 0.00 | 0.00 | 0.00 | 58 | 1012.7 |
| 20260906065003 | 82 | 138 | 5.2 | 11.3 | 0.00 | 0.00 | 0.00 | 55 | 1012.9 |
| 20260906064504 | 82 | 147 | 4.3 | 10.4 | 0.00 | 0.00 | 0.00 | 55 | 1012.8 |
| 20260906064003 | 82 | 125 | 6.1 | 10.4 | 0.00 | 0.00 | 0.00 | 55 | 1012.8 |
| 20260906063503 | 82 | 151 | 4.3 | 6.1 | 0.00 | 0.00 | 0.00 | 55 | 1012.8 |
| 20260906063004 | 82 | 144 | 3.5 | 6.1 | 0.00 | 0.00 | 0.00 | 55 | 1012.9 |
| 20260906062502 | 82 | 137 | 2.6 | 6.1 | 0.00 | 0.00 | 0.00 | 54 | 1013.1 |
| 20260906062003 | 82 | 151 | 3.5 | 6.1 | 0.00 | 0.00 | 0.00 | 54 | 1013.1 |
| 20260906061501 | 82 | 133 | 5.2 | 6.1 | 0.00 | 0.00 | 0.00 | 54 | 1013.2 |
| 20260906061002 | 82 | 141 | 3.5 | 5.2 | 0.00 | 0.00 | 0.00 | 54 | 1013.2 |
| 20260906060503 | 82 | 133 | 3.5 | 4.3 | 0.00 | 0.00 | 0.00 | 54 | 1013.2 |
| 20260906060002 | 82 | 151 | 2.6 | 5.2 | 0.00 | 0.00 | 0.00 | 54 | 1013.1 |
| 20260906055502 | 82 | 161 | 3.5 | 7.8 | 0.00 | 0.00 | 0.00 | 54 | 1013.2 |
| 20260906055003 | 82 | 142 | 3.5 | 7.8 | 0.00 | 0.00 | 0.00 | 54 | 1013.3 |
| 20260906054504 | 82 | 127 | 4.3 | 6.1 | 0.00 | 0.00 | 0.00 | 54 | 1013.2 |
| 20260906054004 | 82 | 128 | 5.2 | 6.1 | 0.00 | 0.00 | 0.00 | 53 | 1013.2 |
| 20260906053502 | 82 | 147 | 4.3 | 6.1 | 0.00 | 0.00 | 0.00 | 53 | 1013.2 |
| 20260906053004 | 82 | 118 | 4.3 | 6.1 | 0.00 | 0.00 | 0.00 | 53 | 1013.2 |
| 20260906052504 | 83 | 125 | 3.5 | 6.1 | 0.00 | 0.00 | 0.00 | 53 | 1012.9 |
| 20260906052002 | 83 | 165 | 3.5 | 5.2 | 0.00 | 0.00 | 0.00 | 52 | 1012.9 |
| 20260906051502 | 83 | 127 | 3.5 | 5.2 | 0.00 | 0.00 | 0.00 | 52 | 1013.1 |
| 20260906051004 | 83 | 147 | 3.5 | 7.8 | 0.00 | 0.00 | 0.00 | 52 | 1013.1 |
| 20260906050759 | 83 | 128 | 4.3 | 7.8 | 0.00 | 0.00 | 0.00 | 52 | 1013.2 |
| 20260906050002 | 83 | 114 | 4.3 | 7.8 | 0.00 | 0.00 | 0.00 | 52 | 1013.1 |
| 20260906045539 | 83 | 133 | 5.2 | 7.8 | 0.00 | 0.00 | 0.00 | 52 | 1013.1 |
| 20260906044756 | 83 | 152 | 4.3 | 6.1 | 0.00 | 0.00 | 0.00 | 50 | 1012.8 |
| 20260906044002 | 0 | 151 | 3.5 | 7.8 | 0.00 | 0.00 | 0.00 | 1013.1 | |
| 20260906043503 | 0 | 159 | 5.2 | 7.8 | 0.00 | 0.00 | 0.00 | 1013.1 | |
| 20260906043002 | 85 | 135 | 4.3 | 7.8 | 0.00 | 0.00 | 0.00 | 50 | 1013.1 |
| 20260906042504 | 85 | 138 | 3.5 | 7.8 | 0.00 | 0.00 | 0.00 | 50 | 1013.1 |
| 20260906042001 | 85 | 121 | 4.3 | 6.1 | 0.00 | 0.00 | 0.00 | 49 | 1012.9 |
| 20260906041502 | 85 | 137 | 4.3 | 6.1 | 0.00 | 0.00 | 0.00 | 49 | 1012.8 |
| 20260906041002 | 85 | 168 | 3.5 | 5.2 | 0.00 | 0.00 | 0.00 | 48 | 1012.8 |
| 20260906040756 | 85 | 118 | 2.6 | 6.1 | 0.00 | 0.00 | 0.00 | 48 | 1012.9 |
| 20260906040251 | 86 | 128 | 4.3 | 6.1 | 0.00 | 0.00 | 0.00 | 48 | 1012.9 |
| 20260906035503 | 86 | 135 | 5.2 | 6.1 | 0.00 | 0.00 | 0.00 | 48 | 1012.9 |
| 20260906035002 | 86 | 145 | 3.5 | 7.8 | 0.00 | 0.00 | 0.00 | 48 | 1012.8 |
| 20260906034755 | 86 | 125 | 5.2 | 8.7 | 0.00 | 0.00 | 0.00 | 48 | 1012.7 |
| 20260906034002 | 86 | 144 | 5.2 | 8.7 | 0.00 | 0.00 | 0.00 | 48 | 1012.7 |
| 20260906033502 | 0 | 116 | 5.2 | 6.1 | 0.00 | 0.00 | 0.00 | 1012.6 | |
| 20260906033031 | 86 | 111 | 4.3 | 6.1 | 0.00 | 0.00 | 0.00 | 47 | 1012.7 |
| 20260906032005 | 87 | 113 | 4.3 | 6.1 | 0.00 | 0.00 | 0.00 | 47 | 1012.5 |
| 20260906031504 | 87 | 118 | 3.5 | 6.1 | 0.00 | 0.00 | 0.00 | 46 | 1012.3 |
| 20260906031254 | 87 | 107 | 3.5 | 6.1 | 0.00 | 0.00 | 0.00 | 46 | 1012.4 |
| 20260906030503 | 87 | 123 | 4.3 | 8.7 | 0.00 | 0.00 | 0.00 | 46 | 1012.3 |
| 20260906030003 | 0 | 106 | 4.3 | 8.7 | 0.00 | 0.00 | 0.00 | 1012.2 | |
| 20260906025503 | 88 | 110 | 4.3 | 7.8 | 0.00 | 0.00 | 0.00 | 45 | 1012.1 |
| 20260906025300 | 88 | 121 | 3.5 | 9.6 | 0.00 | 0.00 | 0.00 | 45 | 1012.1 |
| 20260906024502 | 88 | 130 | 4.3 | 9.6 | 0.00 | 0.00 | 0.00 | 45 | 1012.0 |
| 20260906024001 | 88 | 97 | 4.3 | 7.8 | 0.00 | 0.00 | 0.00 | 45 | 1011.9 |
| 20260906023504 | 88 | 117 | 4.3 | 7.8 | 0.00 | 0.00 | 0.00 | 44 | 1011.9 |
| 20260906023002 | 89 | 120 | 4.3 | 6.1 | 0.00 | 0.00 | 0.00 | 44 | 1011.9 |
| 20260906022505 | 0 | 116 | 3.5 | 7.8 | 0.00 | 0.00 | 0.00 | 1011.8 | |
| 20260906022003 | 0 | 116 | 3.5 | 7.8 | 0.00 | 0.00 | 0.00 | 1011.8 | |
| 20260906021503 | 89 | 123 | 3.5 | 7.8 | 0.00 | 0.00 | 0.00 | 43 | 1011.7 |
| 20260906021001 | 89 | 120 | 4.3 | 7.8 | 0.00 | 0.00 | 0.00 | 43 | 1011.7 |
| 20260906020502 | 89 | 104 | 5.2 | 7.8 | 0.00 | 0.00 | 0.00 | 43 | 1011.7 |
| 20260906020001 | 90 | 125 | 4.3 | 7.8 | 0.00 | 0.00 | 0.00 | 42 | 1011.5 |
| 20260906015501 | 90 | 114 | 5.2 | 7.8 | 0.00 | 0.00 | 0.00 | 42 | 1011.5 |
| 20260906015002 | 90 | 130 | 4.3 | 7.8 | 0.00 | 0.00 | 0.00 | 41 | 1011.6 |
| 20260906014755 | 0 | 100 | 3.5 | 7.8 | 0.00 | 0.00 | 0.00 | 1011.4 | |
| 20260906014004 | 91 | 100 | 4.3 | 6.1 | 0.00 | 0.00 | 0.00 | 40 | 1011.3 |
| 20260906013503 | 91 | 131 | 4.3 | 9.6 | 0.00 | 0.00 | 0.00 | 40 | 1011.2 |
| 20260906013252 | 91 | 123 | 5.2 | 10.4 | 0.00 | 0.00 | 0.00 | 40 | 1010.9 |
| 20260906012503 | 92 | 141 | 4.3 | 10.4 | 0.00 | 0.00 | 0.00 | 39 | 1010.9 |
| 20260906012002 | 92 | 94 | 6.1 | 10.4 | 0.00 | 0.00 | 0.00 | 39 | 1010.8 |
| 20260906011503 | 92 | 130 | 5.2 | 10.4 | 0.00 | 0.00 | 0.00 | 39 | 1010.8 |
| 20260906011256 | 92 | 123 | 5.2 | 9.6 | 0.00 | 0.00 | 0.00 | 39 | 1010.7 |
| 20260906010504 | 0 | 124 | 5.2 | 9.6 | 0.00 | 0.00 | 0.00 | 1010.6 | |
| 20260906010002 | 93 | 117 | 7.0 | 10.4 | 0.00 | 0.00 | 0.00 | 38 | 1010.6 |
| 20260906005504 | 93 | 137 | 5.2 | 12.2 | 0.00 | 0.00 | 0.00 | 38 | 1010.4 |
| 20260906005300 | 93 | 120 | 6.1 | 12.2 | 0.00 | 0.00 | 0.00 | 38 | 1010.5 |
| 20260906004756 | 94 | 130 | 5.2 | 13.0 | 0.00 | 0.00 | 0.00 | 37 | 1010.5 |
| 20260906004005 | 94 | 99 | 6.1 | 13.0 | 0.00 | 0.00 | 0.00 | 37 | 1010.5 |
| 20260906003504 | 94 | 151 | 5.2 | 10.4 | 0.00 | 0.00 | 0.00 | 37 | 1010.5 |
| 20260906003005 | 94 | 111 | 6.1 | 10.4 | 0.00 | 0.00 | 0.00 | 37 | 1010.5 |
| 20260906002503 | 95 | 124 | 5.2 | 10.4 | 0.00 | 0.00 | 0.00 | 37 | 1010.5 |
| 20260906002003 | 95 | 128 | 6.1 | 10.4 | 0.00 | 0.00 | 0.00 | 36 | 1010.3 |
| 20260906001505 | 95 | 124 | 7.0 | 13.9 | 0.00 | 0.00 | 0.00 | 36 | 1010.4 |
| 20260906001002 | 95 | 109 | 8.7 | 13.9 | 0.00 | 0.00 | 0.00 | 36 | 1010.3 |
| 20260906000758 | 96 | 93 | 8.7 | 12.2 | 0.00 | 0.00 | 0.00 | 36 | 1010.3 |
| 20260906000002 | 96 | 133 | 7.0 | 12.2 | 0.00 | 0.00 | 0.00 | 36 | 1010.4 |
| 20260905235538 | 96 | 159 | 7.8 | 12.2 | 0.00 | 0.00 | 0.00 | 36 | 1010.3 |
| 20260905234501 | 96 | 116 | 7.0 | 9.6 | 0.00 | 0.00 | 0.00 | 36 | 1010.3 |
| 20260905234004 | 96 | 141 | 6.1 | 12.2 | 0.00 | 0.00 | 0.00 | 36 | 1010.3 |
| 20260905233502 | 96 | 93 | 7.8 | 13.0 | 0.00 | 0.00 | 0.00 | 36 | 1010.2 |
| 20260905233003 | 97 | 103 | 7.8 | 13.0 | 0.00 | 0.00 | 0.00 | 36 | 1010.2 |
| 20260905232504 | 97 | 116 | 7.8 | 10.4 | 0.00 | 0.00 | 0.00 | 36 | 1010.0 |
| 20260905232003 | 97 | 147 | 7.0 | 10.4 | 0.00 | 0.00 | 0.00 | 37 | 1010.2 |
| 20260905231503 | 96 | 133 | 6.1 | 10.4 | 0.00 | 0.00 | 0.00 | 37 | 1009.9 |
| 20260905231004 | 96 | 97 | 5.2 | 8.7 | 0.00 | 0.00 | 0.00 | 37 | 1009.9 |
| 20260905230504 | 97 | 111 | 4.3 | 12.2 | 0.00 | 0.00 | 0.00 | 37 | 1010.0 |
| 20260905230343 | 97 | 134 | 7.0 | 12.2 | 0.00 | 0.00 | 0.00 | 36 | 1010.0 |
| 20260905225002 | 98 | 86 | 6.1 | 13.0 | 0.00 | 0.00 | 0.00 | 36 | 1010.0 |
| 20260905224503 | 98 | 135 | 7.8 | 13.9 | 0.00 | 0.00 | 0.00 | 36 | 1010.0 |
| 20260905224002 | 98 | 125 | 6.1 | 13.9 | 0.00 | 0.00 | 0.00 | 36 | 1010.0 |
| 20260905223504 | 0 | 87 | 7.0 | 10.4 | 0.00 | 0.00 | 0.00 | 1010.0 | |
| 20260905223004 | 99 | 83 | 5.2 | 9.6 | 0.00 | 0.00 | 0.00 | 35 | 1010.1 |
| 20260905222758 | 99 | 65 | 4.3 | 11.3 | 0.00 | 0.00 | 0.00 | 35 | 1010.1 |
| 20260905222003 | 99 | 73 | 4.3 | 12.2 | 0.00 | 0.00 | 0.00 | 35 | 1010.1 |
| 20260905221502 | 99 | 94 | 7.8 | 12.2 | 0.00 | 0.00 | 0.00 | 34 | 1010.1 |